TIME,DELAY(SENSOR),PRES,OXYGEN,RAWTEMP,T(OPTODE),TCPHASE,FLUOR,BETA(BETA700),BETA(BETA412),BETA(BETA440),CDOM,C(CSC),ED(ED412.20),ED(ED444.00),ED(ED489.60),ED(ED554.30),LU(LU412.10),LU(LU443.90),LU(LU489.70),LU(LU554.70),COMP,TILTX,TILTY,CHECK
1355798923,5810,898.3499755859375000,32.9899406433105500,559.6309204101562000,4.4973349571228030,56.6027793884277340,55,99,100,77,82,15555,0,0,0,0,2147123556,2147772342,2147573412,2147572507,1930,3,13,1746
1355802519,5813,966.2000122070312000,38.6160392761230500,567.3303833007812000,4.2584919929504395,55.7970809936523440,54,98,100,77,82,15551,0,0,0,0,2147127360,2147771456,2147578157,2147568320,3351,3,13,45542
1355806119,5809,961.4799804687500000,39.1164512634277340,569.0468750000000000,4.2051749229431150,55.7400016784668000,56,98,101,78,84,15552,0,0,0,0,2147122779,2147773156,2147574683,2147569462,247,3,13,40041
1355809719,5811,1004.4500122070312000,42.5037994384765600,570.7064819335938000,4.1536049842834470,55.2532081604003900,55,99,100,76,82,15552,0,0,0,0,2147121874,2147771520,2147575862,2147571145,305,3,13,48724
1355813319,5810,998.9600219726562000,42.6331100463867200,570.7612304687500000,4.1519031524658200,55.2340316772460940,56,99,100,77,81,15550,0,0,0,0,2147122459,2147773769,2147574701,2147568777,149,3,13,50623
1355816919,5811,1001.0999755859375000,42.6225013732910160,572.4166870117188000,4.1004347801208500,55.2543487548828100,55,98,100,77,82,15550,0,0,0,0,2147127204,2147771483,2147573074,2147568219,175,2,13,47855
1355820519,5808,1005.7800292968750000,43.2230110168457000,573.0438842773438000,4.0809311866760250,55.1733283996582000,54,126,100,78,83,15550,0,0,0,0,2147123776,2147775808,2147572626,2147568877,122,3,13,55151
1355824119,5809,1016.9600219726562000,42.4135093688964840,572.1010131835938000,4.1102519035339355,55.2820587158203100,55,99,101,78,83,15549,0,0,0,0,2147126939,2147772480,2147571968,2147571053,464,3,13,39588
1355827719,5810,1014.7500000000000000,42.1989593505859400,571.7592163085938000,4.1208820343017580,55.3119392395019500,55,99,99,78,82,15545,0,0,0,0,2147125641,2147768804,2147572708,2147568987,65,3,13,43645
1355831319,5807,1015.7000122070312000,42.0937690734863300,571.9105224609375000,4.1161770820617680,55.3247489929199200,54,98,101,78,82,15548,0,0,0,0,2147123254,2147774089,2147572434,2147567433,3577,3,13,61407
1355834919,5810,1012.9000244140625000,42.5209693908691400,572.7622070312500000,4.0896911621093750,55.2752189636230500,55,100,99,78,82,15547,0,0,0,0,2147126646,2147771584,2147573229,2147572635,764,3,13,23803
1355838519,5812,1012.9500122070312000,42.1287803649902340,572.3604736328125000,4.1021838188171390,55.3242988586425800,56,99,98,78,82,15551,0,0,0,0,2147121398,2147771693,2147572790,2147566829,20,3,13,42285
1355842119,5809,1014.1099853515625000,42.1063995361328100,572.4343872070312000,4.0998840332031250,55.3327903747558600,54,99,102,78,82,15548,0,0,0,0,2147122112,2147774957,2147572900,2147570102,3144,3,13,28644
1355845719,5810,1017.1799926757812000,42.7681808471679700,573.0275878906250000,4.0814361572265625,55.2429695129394500,55,101,99,78,82,15544,0,0,0,0,2147122294,2147768393,2147576320,2147567652,11,3,13,15108
1355849319,5810,1017.0999755859375000,42.7469215393066400,573.1260986328125000,4.0783748626708980,55.2439689636230500,54,101,100,79,83,15546,0,0,0,0,2147124516,2147768896,2147570752,2147569517,98,3,13,32969
1355852919,5809,1024.8499755859375000,42.6380310058593750,572.5261840820312000,4.0970311164855960,55.2569885253906250,56,99,100,77,83,15545,0,0,0,0,2147124946,2147771904,2147573732,2147566884,228,3,13,38159
1355856519,5808,1021.7100219726562000,42.3767318725585940,572.4348144531250000,4.0998730659484860,55.2928810119628900,54,98,100,77,81,15542,0,0,0,0,2147125869,2147776420,2147578925,2147572041,235,3,13,4036
1355860119,5809,1015.9500122070312000,42.4578895568847660,573.0759887695312000,4.0799307823181150,55.2876892089843750,54,99,99,77,82,15538,0,0,0,0,2147120722,2147774107,2147576859,2147566418,3407,3,13,7911
1355863719,5811,1023.5999755859375000,43.1092491149902340,573.1403808593750000,4.0779290199279785,55.1948318481445300,55,99,99,77,82,15540,0,0,0,0,2147125796,2147775597,2147575497,2147570166,3236,3,13,10727
1355867319,5808,1012.6599731445312000,42.6679382324218750,573.9235839843750000,4.0535678863525390,55.2660408020019500,54,99,100,78,83,15537,0,0,0,0,2147124306,2147773952,2147572544,2147569581,262,3,13,10895
1355870919,5811,1015.9799804687500000,43.2540512084960940,574.4757080078125000,4.0363898277282715,55.1876106262207000,54,101,101,78,82,15537,0,0,0,0,2147127433,2147771648,2147573723,2147570294,434,3,13,28038
1355874519,5810,1013.3900146484375000,42.9980201721191400,573.8588867187500000,4.0555801391601560,55.2142906188964840,55,98,100,79,82,15533,0,0,0,0,2147125732,2147774052,2147570962,2147571227,3111,3,13,46701
1355878119,5809,1014.6799926757812000,42.9163208007812500,573.9235229492188000,4.0535697937011720,55.2307701110839840,54,98,100,77,81,15522,0,0,0,0,2147123876,2147770797,2147572022,2147570240,3474,3,13,61601
1355881719,5813,1022.0399780273438000,43.0004615783691400,573.1370849609375000,4.0780301094055180,55.2121582031250000,55,102,100,78,82,15520,0,0,0,0,2147123245,2147772443,2147571382,2147570386,3118,3,13,3475
1355885319,5811,1021.8699951171875000,42.6637916564941400,572.6281127929688000,4.0938639640808105,55.2534408569335940,55,99,99,79,82,15518,0,0,0,0,2147122185,2147770752,2147572333,2147565833,271,3,13,35602
1355888919,5809,1023.0700073242188000,42.6168899536132800,573.0480957031250000,4.0808010101318360,55.2645301818847660,56,98,100,78,82,15506,0,0,0,0,2147122614,2147768978,2147572269,2147567058,196,3,13,18627
1355892519,5808,1020.2299804687500000,42.7260589599609400,573.7202148437500000,4.0598959922790530,55.2531318664550800,54,97,100,79,82,15508,0,0,0,0,2147122304,2147770953,2147573851,2147571200,3293,3,13,26725
1355896119,5810,1022.5100097656250000,42.5253105163574200,573.6951293945312000,4.0606751441955570,55.2834396362304700,55,98,102,78,82,15507,0,0,0,0,2147122788,2147772790,2147573915,2147570779,133,3,13,48629
1355899719,5810,1024.5200195312500000,42.8392715454101560,573.0338134765625000,4.0812449455261230,55.2290115356445300,55,99,101,78,82,15507,0,0,0,0,2147122185,2147772315,2147574674,2147565961,79,3,13,27567
1355903319,5807,1008.2999877929688000,42.8644905090332000,573.8413696289062000,4.0561261177062990,55.2346992492675800,55,97,100,79,83,15508,0,0,0,0,2147124068,2147770048,2147573220,2147568941,851,3,13,61184
1355906919,5806,1020.5200195312500000,43.0914497375488300,573.7860717773438000,4.0578441619873050,55.2006492614746100,54,100,100,78,82,15508,0,0,0,0,2147122742,2147769792,2147573952,2147567862,104,3,13,43679
1355910519,5810,1022.5399780273438000,42.7189407348632800,573.7305297851562000,4.0595741271972660,55.2545509338378900,54,98,100,76,82,15507,0,0,0,0,2147118134,2147773869,2147572114,2147566893,3160,3,13,21347
1355914119,5807,1022.9000244140625000,42.2120399475097660,572.4207763671875000,4.1003088951110840,55.3182983398437500,55,99,101,77,82,15504,0,0,0,0,2147122377,2147765769,2147573504,2147569846,477,3,13,8059
1355917719,5808,1020.5900268554688000,42.9925498962402340,573.5399780273438000,4.0654997825622560,55.2134094238281250,54,98,101,78,83,15506,0,0,0,0,2147120365,2147772297,2147571062,2147568384,281,3,13,63205
1355921319,5808,1021.6500244140625000,42.4381484985351560,573.1080932617188000,4.0789341926574710,55.2926101684570300,55,98,99,78,83,15507,0,0,0,0,2147126125,2147769508,2147572489,2147566701,11,3,13,64459
1355924919,5809,1025.4399414062500000,42.8468589782714840,573.0933837890625000,4.0793900489807130,55.2312889099121100,54,101,101,78,81,15503,0,0,0,0,2147121929,2147768402,2147574336,2147568082,135,3,13,3856
1355928519,5811,1033.0999755859375000,42.1446495056152340,572.0833129882812000,4.1108040809631350,55.3185882568359400,55,100,99,79,82,15504,0,0,0,0,2147124041,2147773238,2147575963,2147565293,3477,3,13,37465
1355932119,5812,1029.4599609375000000,42.3060684204101560,572.2717895507812000,4.1049418449401855,55.3032913208007800,55,97,100,77,83,15505,0,0,0,0,2147124251,2147769298,2147575634,2147564516,3348,3,13,2559
1355935719,5808,1025.5899658203125000,41.9582099914550800,573.0521240234375000,4.0806770324707030,55.3578910827636700,55,98,100,78,81,15504,0,0,0,0,2147124178,2147771300,2147573769,2147566381,352,3,13,13555
1355939319,5809,1023.5100097656250000,42.6779594421386700,573.1052856445312000,4.0790209770202640,55.2578010559082000,55,98,100,77,83,15501,0,0,0,0,2147123099,2147770797,2147571776,2147570998,369,3,13,14471
1355942919,5810,1020.6799926757812000,42.5787887573242200,573.4414062500000000,4.0685667991638180,55.2748107910156250,54,98,100,78,81,15504,0,0,0,0,2147122578,2147774290,2147577481,2147568091,243,3,13,13262
1355944555,5808,1026.9200439453125000,43.0885200500488300,573.5709228515625000,4.0645389556884770,55.1975898742675800,55,99,100,79,81,15505,0,0,0,0,2147123913,2147771620,2147569737,2147568384,252,3,13,27913
